Time,TemperatureF,DewpointF,PressureIn,WindDirection,WindDirectionDegrees,WindSpeedMPH,WindSpeedGustMPH,Humidity,HourlyPrecipIn,Conditions,Clouds,dailyrainin,SoftwareType,DateUTC
2013-05-13 00:11:00,53.0,51.0,-100.00,North,-999,-999.0,-999.0,94,0.00,,,0.00,,2013-05-13 07:11:00,
2013-05-13 00:22:00,53.0,51.0,-100.00,North,-999,-999.0,-999.0,94,0.00,,,0.00,,2013-05-13 07:22:00,
2013-05-13 00:31:00,53.0,51.0,-100.00,North,-999,-999.0,-999.0,94,0.00,,,0.00,,2013-05-13 07:31:00,
2013-05-13 00:41:00,53.0,51.0,-100.00,North,-999,-999.0,-999.0,94,0.00,,,0.00,,2013-05-13 07:41:00,
2013-05-13 01:11:00,52.0,51.0,-100.00,North,-999,-999.0,-999.0,95,0.00,,,0.00,,2013-05-13 08:11:00,
2013-05-13 01:21:00,52.0,51.0,-100.00,North,-999,-999.0,-999.0,95,0.00,,,0.00,,2013-05-13 08:21:00,
2013-05-13 01:31:00,52.0,51.0,-100.00,North,-999,-999.0,-999.0,95,0.00,,,0.00,,2013-05-13 08:31:00,
2013-05-13 01:41:00,52.0,51.0,-100.00,North,-999,-999.0,-999.0,95,0.00,,,0.00,,2013-05-13 08:41:00,
2013-05-13 02:11:00,53.0,51.0,-100.00,North,-999,-999.0,-999.0,94,0.00,,,-99.99,,2013-05-13 09:11:00,
2013-05-13 02:21:00,53.0,51.0,-100.00,North,-999,-999.0,-999.0,94,0.00,,,-99.99,,2013-05-13 09:21:00,
2013-05-13 02:33:00,53.0,51.0,-100.00,North,-999,-999.0,-999.0,94,0.00,,,-99.99,,2013-05-13 09:33:00,
2013-05-13 02:42:00,53.0,51.0,-100.00,North,-999,-999.0,-999.0,94,0.00,,,-99.99,,2013-05-13 09:42:00,
2013-05-13 03:12:00,52.0,50.0,-100.00,North,-999,-999.0,-999.0,94,0.00,,,0.00,,2013-05-13 10:12:00,
2013-05-13 03:22:00,52.0,50.0,-100.00,North,-999,-999.0,-999.0,94,0.00,,,0.00,,2013-05-13 10:22:00,
2013-05-13 03:32:00,52.0,50.0,-100.00,North,-999,-999.0,-999.0,94,0.00,,,0.00,,2013-05-13 10:32:00,
2013-05-13 03:42:00,52.0,50.0,-100.00,North,-999,-999.0,-999.0,94,0.00,,,0.00,,2013-05-13 10:42:00,
2013-05-13 04:12:00,52.0,50.0,-100.00,North,-999,-999.0,-999.0,94,0.00,,,0.00,,2013-05-13 11:12:00,
2013-05-13 04:21:00,52.0,50.0,-100.00,North,-999,-999.0,-999.0,94,0.00,,,0.00,,2013-05-13 11:21:00,
2013-05-13 04:32:00,52.0,50.0,-100.00,North,-999,-999.0,-999.0,94,0.00,,,0.00,,2013-05-13 11:32:00,
2013-05-13 04:41:00,52.0,50.0,-100.00,North,-999,-999.0,-999.0,94,0.00,,,0.00,,2013-05-13 11:41:00,
2013-05-13 05:11:00,53.0,51.0,-100.00,North,-999,-999.0,-999.0,94,0.00,,,0.00,,2013-05-13 12:11:00,
2013-05-13 05:21:00,53.0,51.0,-100.00,North,-999,-999.0,-999.0,94,0.00,,,0.00,,2013-05-13 12:21:00,
2013-05-13 05:32:00,53.0,51.0,-100.00,North,-999,-999.0,-999.0,94,0.00,,,0.00,,2013-05-13 12:32:00,
2013-05-13 05:41:00,53.0,51.0,-100.00,North,-999,-999.0,-999.0,94,0.00,,,0.00,,2013-05-13 12:41:00,
2013-05-13 06:11:00,53.0,52.0,-100.00,North,-999,-999.0,-999.0,94,0.00,,,0.00,,2013-05-13 13:11:00,
2013-05-13 06:21:00,53.0,52.0,-100.00,North,-999,-999.0,-999.0,94,0.00,,,0.00,,2013-05-13 13:21:00,
2013-05-13 06:31:00,53.0,52.0,-100.00,North,-999,-999.0,-999.0,94,0.00,,,0.00,,2013-05-13 13:31:00,
2013-05-13 06:41:00,53.0,52.0,-100.00,North,-999,-999.0,-999.0,94,0.00,,,0.00,,2013-05-13 13:41:00,
2013-05-13 08:11:00,52.0,51.0,-100.00,North,-999,-999.0,-999.0,96,-99.99,,,0.00,,2013-05-13 15:11:00,
2013-05-13 08:21:00,52.0,51.0,-100.00,North,-999,-999.0,-999.0,96,-99.99,,,0.00,,2013-05-13 15:21:00,
2013-05-13 08:31:00,52.0,51.0,-100.00,North,-999,-999.0,-999.0,96,-99.99,,,0.00,,2013-05-13 15:31:00,
2013-05-13 08:42:00,52.0,51.0,-100.00,North,-999,-999.0,-999.0,96,-99.99,,,0.00,,2013-05-13 15:42:00,
2013-05-13 09:11:00,53.0,52.0,-100.00,North,-999,-999.0,-999.0,96,0.00,,,0.00,,2013-05-13 16:11:00,
2013-05-13 09:21:00,53.0,52.0,-100.00,North,-999,-999.0,-999.0,96,0.00,,,0.00,,2013-05-13 16:21:00,
2013-05-13 09:33:00,53.0,52.0,-100.00,North,-999,-999.0,-999.0,96,0.00,,,0.00,,2013-05-13 16:33:00,
2013-05-13 09:42:00,53.0,52.0,-100.00,North,-999,-999.0,-999.0,96,0.00,,,0.00,,2013-05-13 16:42:00,
2013-05-13 10:12:00,53.0,52.0,-100.00,North,-999,-999.0,-999.0,94,0.00,,,0.00,,2013-05-13 17:12:00,
2013-05-13 10:21:00,53.0,52.0,-100.00,North,-999,-999.0,-999.0,94,0.00,,,0.00,,2013-05-13 17:21:00,
2013-05-13 10:32:00,53.0,52.0,-100.00,North,-999,-999.0,-999.0,94,0.00,,,0.00,,2013-05-13 17:32:00,
2013-05-13 10:41:00,53.0,52.0,-100.00,North,-999,-999.0,-999.0,94,0.00,,,0.00,,2013-05-13 17:41:00,
2013-05-13 11:12:00,56.0,52.0,-100.00,North,-999,-999.0,-999.0,89,0.00,,,0.00,,2013-05-13 18:12:00,
2013-05-13 11:23:00,56.0,52.0,-100.00,North,-999,-999.0,-999.0,89,0.00,,,0.00,,2013-05-13 18:23:00,
2013-05-13 11:32:00,56.0,52.0,-100.00,North,-999,-999.0,-999.0,89,0.00,,,0.00,,2013-05-13 18:32:00,
2013-05-13 11:42:00,56.0,52.0,-100.00,North,-999,-999.0,-999.0,89,0.00,,,0.00,,2013-05-13 18:42:00,
2013-05-13 11:43:00,59.0,53.0,-100.00,North,-999,-999.0,-999.0,81,0.00,,,0.00,,2013-05-13 18:43:00,
2013-05-13 12:11:00,59.0,53.0,-100.00,North,-999,-999.0,-999.0,81,0.00,,,0.00,,2013-05-13 19:11:00,
2013-05-13 12:21:00,59.0,53.0,-100.00,North,-999,-999.0,-999.0,81,0.00,,,0.00,,2013-05-13 19:21:00,
2013-05-13 12:32:00,59.0,53.0,-100.00,North,-999,-999.0,-999.0,81,0.00,,,0.00,,2013-05-13 19:32:00,
2013-05-13 12:43:00,60.0,52.0,-100.00,North,-999,-999.0,-999.0,77,0.00,,,-99.99,,2013-05-13 19:43:00,
2013-05-13 13:11:00,60.0,52.0,-100.00,North,-999,-999.0,-999.0,77,0.00,,,-99.99,,2013-05-13 20:11:00,
2013-05-13 13:23:00,60.0,52.0,-100.00,North,-999,-999.0,-999.0,77,0.00,,,-99.99,,2013-05-13 20:23:00,
2013-05-13 13:33:00,60.0,52.0,-100.00,North,-999,-999.0,-999.0,77,0.00,,,-99.99,,2013-05-13 20:33:00,
2013-05-13 13:43:00,60.0,53.0,-100.00,North,-999,-999.0,-999.0,78,0.00,,,0.00,,2013-05-13 20:43:00,
2013-05-13 14:14:00,60.0,53.0,-100.00,North,-999,-999.0,-999.0,78,0.00,,,0.00,,2013-05-13 21:14:00,
2013-05-13 14:23:00,60.0,53.0,-100.00,North,-999,-999.0,-999.0,78,0.00,,,0.00,,2013-05-13 21:23:00,
2013-05-13 14:33:00,60.0,53.0,-100.00,North,-999,-999.0,-999.0,78,0.00,,,0.00,,2013-05-13 21:33:00,
2013-05-13 15:12:00,60.0,53.0,-100.00,North,-999,-999.0,-999.0,76,0.00,,,0.00,,2013-05-13 22:12:00,
2013-05-13 15:22:00,60.0,53.0,-100.00,North,-999,-999.0,-999.0,76,0.00,,,0.00,,2013-05-13 22:22:00,
2013-05-13 15:32:00,60.0,53.0,-100.00,North,-999,-999.0,-999.0,76,0.00,,,0.00,,2013-05-13 22:32:00,
2013-05-13 15:42:00,60.0,53.0,-100.00,North,-999,-999.0,-999.0,76,0.00,,,0.00,,2013-05-13 22:42:00,
2013-05-13 16:12:00,62.0,52.0,-100.00,North,-999,-999.0,-999.0,69,0.00,,,0.00,,2013-05-13 23:12:00,
2013-05-13 16:23:00,62.0,52.0,-100.00,North,-999,-999.0,-999.0,69,0.00,,,0.00,,2013-05-13 23:23:00,
2013-05-13 16:33:00,62.0,52.0,-100.00,North,-999,-999.0,-999.0,69,0.00,,,0.00,,2013-05-13 23:33:00,
2013-05-13 16:42:00,62.0,52.0,-100.00,North,-999,-999.0,-999.0,69,0.00,,,0.00,,2013-05-13 23:42:00,
2013-05-13 17:12:00,60.0,52.0,-100.00,North,-999,-999.0,-999.0,74,0.00,,,0.00,,2013-05-14 00:12:00,
2013-05-13 17:22:00,60.0,52.0,-100.00,North,-999,-999.0,-999.0,74,0.00,,,0.00,,2013-05-14 00:22:00,
2013-05-13 17:31:00,60.0,52.0,-100.00,North,-999,-999.0,-999.0,74,0.00,,,0.00,,2013-05-14 00:31:00,
2013-05-13 17:41:00,60.0,52.0,-100.00,North,-999,-999.0,-999.0,74,0.00,,,0.00,,2013-05-14 00:41:00,
2013-05-13 17:43:00,60.0,51.0,-100.00,North,-999,-999.0,-999.0,72,0.00,,,0.00,,2013-05-14 00:43:00,
2013-05-13 18:11:00,60.0,51.0,-100.00,North,-999,-999.0,-999.0,72,0.00,,,0.00,,2013-05-14 01:11:00,
2013-05-13 18:21:00,60.0,51.0,-100.00,North,-999,-999.0,-999.0,72,0.00,,,0.00,,2013-05-14 01:21:00,
2013-05-13 18:31:00,60.0,51.0,-100.00,North,-999,-999.0,-999.0,72,0.00,,,0.00,,2013-05-14 01:31:00,
2013-05-13 19:11:00,60.0,49.0,-100.00,North,-999,-999.0,-999.0,68,0.00,,,0.00,,2013-05-14 02:11:00,
2013-05-13 19:22:00,60.0,49.0,-100.00,North,-999,-999.0,-999.0,68,0.00,,,0.00,,2013-05-14 02:22:00,
2013-05-13 19:31:00,60.0,49.0,-100.00,North,-999,-999.0,-999.0,68,0.00,,,0.00,,2013-05-14 02:31:00,
2013-05-13 19:42:00,60.0,49.0,-100.00,North,-999,-999.0,-999.0,68,0.00,,,0.00,,2013-05-14 02:42:00,
2013-05-13 20:11:00,60.0,49.0,-100.00,North,-999,-999.0,-999.0,67,0.00,,,0.00,,2013-05-14 03:11:00,
2013-05-13 20:21:00,60.0,49.0,-100.00,North,-999,-999.0,-999.0,67,0.00,,,0.00,,2013-05-14 03:21:00,
2013-05-13 20:33:00,60.0,49.0,-100.00,North,-999,-999.0,-999.0,67,0.00,,,0.00,,2013-05-14 03:33:00,
2013-05-13 20:42:00,60.0,49.0,-100.00,North,-999,-999.0,-999.0,67,0.00,,,0.00,,2013-05-14 03:42:00,
2013-05-13 21:13:00,57.0,49.0,-100.00,North,-999,-999.0,-999.0,74,0.00,,,0.00,,2013-05-14 04:13:00,
2013-05-13 21:22:00,57.0,49.0,-100.00,North,-999,-999.0,-999.0,74,0.00,,,0.00,,2013-05-14 04:22:00,
2013-05-13 21:32:00,57.0,49.0,-100.00,North,-999,-999.0,-999.0,74,0.00,,,0.00,,2013-05-14 04:32:00,
2013-05-13 21:42:00,57.0,49.0,-100.00,North,-999,-999.0,-999.0,74,0.00,,,0.00,,2013-05-14 04:42:00,
2013-05-13 22:12:00,57.0,48.0,-100.00,North,-999,-999.0,-999.0,72,0.00,,,-99.99,,2013-05-14 05:12:00,
2013-05-13 22:21:00,57.0,48.0,-100.00,North,-999,-999.0,-999.0,72,0.00,,,-99.99,,2013-05-14 05:21:00,
2013-05-13 22:32:00,57.0,48.0,-100.00,North,-999,-999.0,-999.0,72,0.00,,,-99.99,,2013-05-14 05:32:00,
2013-05-13 22:42:00,57.0,48.0,-100.00,North,-999,-999.0,-999.0,72,0.00,,,-99.99,,2013-05-14 05:42:00,
2013-05-13 23:12:00,56.0,48.0,-100.00,North,-999,-999.0,-999.0,74,0.00,,,0.00,,2013-05-14 06:12:00,
2013-05-13 23:22:00,56.0,48.0,-100.00,North,-999,-999.0,-999.0,74,0.00,,,0.00,,2013-05-14 06:22:00,
2013-05-13 23:32:00,56.0,48.0,-100.00,North,-999,-999.0,-999.0,74,0.00,,,0.00,,2013-05-14 06:32:00,
2013-05-13 23:42:00,56.0,48.0,-100.00,North,-999,-999.0,-999.0,74,0.00,,,0.00,,2013-05-14 06:42:00,